Kalamazoo, MI

10:41 AM EST on February 22, 2018 (GMT -0500)
Kalamazoo-Battle Creek International

Weather History for KAZO - January, 2007

Change the Weather History Date:

Friday, January 5, 2007

  Actual Average Record
Temperature  
Mean Temperature 47 °F 25 °F  
Max Temperature 50 °F 31 °F 50 °F (2007)
Min Temperature 44 °F 18 °F -14 °F (1999)
Degree Days  
Heating Degree Days 18 40  
Month to date heating degree days 200  
Since 1 July heating degree days 2651  
Cooling Degree Days 0 0  
Month to date cooling degree days 0  
Year to date cooling degree days 0  
Moisture  
Dew Point 44 °F    
Average Humidity 87    
Maximum Humidity 100    
Minimum Humidity 77    
Precipitation  
Precipitation 0.09 in 0.06 in 0.72 in (1955)
Month to date precipitation 0.31  
Year to date precipitation 0.31  
Sea Level Pressure  
Sea Level Pressure 29.68 in    
Wind  
Wind Speed 8 mph (SW)    
Max Wind Speed 14 mph    
Max Gust Speed 16 mph    
Visibility 8 miles    
Events Rain    
T = Trace of Precipitation, MM = Missing Value Source: NWS Daily Summary

Daily Weather History Graph

Daily Weather History Graph

Search for Another Location

Airport or City:

Trip Planner

Search our weather history database for the weather conditions in past years. The results will help you decide how hot, cold, wet, or windy it might be!

Date:

Astronomy

Jan. 05, 2007 Rise Set
Actual Time 8:11 AM EST 5:24 PM EST
Civil Twilight 7:39 AM EST 5:55 PM EST
Nautical Twilight 7:04 AM EST 6:30 PM EST
Astronomical Twilight 6:30 AM EST 7:04 PM EST
Moon 7:40 PM EST (1/5) 9:54 AM EST (1/5)
Length of Visible Light 10h 16m
Length of Day
9h 13m
Waning Gibbous, 95% of the Moon is Illuminated
Jan 5
Waning Gibbous
Jan 11
Last Quarter
Jan 18
New
Jan 25
First Quarter
Feb 2
Full

Hourly Weather History & Observations

Time (EST) Temp. Windchill Dew Point Humidity Pressure Visibility Wind Dir Wind Speed Gust Speed Precip Events Conditions
12:06 AM 44.6 °F 38.1 °F 42.8 °F 93% 29.63 in 4.0 mi South 13.8 mph - 0.02 in Rain Light Rain
12:34 AM 44.6 °F 38.4 °F 42.8 °F 93% 29.63 in 5.0 mi South 12.7 mph - 0.07 in Rain Rain
12:53 AM 46.0 °F 40.2 °F 44.1 °F 93% 29.65 in 5.0 mi SSW 12.7 mph - 0.07 in Rain Light Rain
1:25 AM 46.4 °F 41.1 °F 44.6 °F 93% 29.63 in 4.0 mi SSW 11.5 mph - 0.01 in Rain Light Rain
1:53 AM 46.9 °F - 45.0 °F 93% 29.65 in 7.0 mi SW 11.5 mph - 0.01 in   Overcast
2:53 AM 48.0 °F - 45.0 °F 89% 29.67 in 5.0 mi SW 10.4 mph - 0.00 in   Light Drizzle
3:41 AM 48.2 °F - 44.6 °F 87% 29.67 in 10.0 mi SW 10.4 mph - 0.00 in   Overcast
3:53 AM 48.0 °F - 45.0 °F 89% 29.68 in 10.0 mi SW 8.1 mph - 0.00 in   Overcast
4:53 AM 48.0 °F - 45.0 °F 89% 29.69 in 10.0 mi SW 5.8 mph - N/A   Overcast
5:15 AM 48.2 °F - 44.6 °F 87% 29.67 in 10.0 mi SW 6.9 mph - N/A   Overcast
5:30 AM 48.2 °F - 44.6 °F 87% 29.68 in 10.0 mi SW 6.9 mph - N/A   Overcast
5:53 AM 48.0 °F - 45.0 °F 89% 29.70 in 10.0 mi SW 8.1 mph - N/A   Overcast
6:30 AM 48.2 °F - 44.6 °F 87% 29.68 in 10.0 mi WSW 12.7 mph - N/A   Overcast
6:53 AM 48.0 °F - 44.1 °F 86% 29.70 in 10.0 mi SW 6.9 mph - N/A   Overcast
7:53 AM 48.0 °F - 44.1 °F 86% 29.72 in 10.0 mi WSW 9.2 mph - N/A   Overcast
8:53 AM 48.0 °F - 44.1 °F 86% 29.73 in 10.0 mi WSW 9.2 mph - N/A   Overcast
9:13 AM 48.2 °F - 44.6 °F 87% 29.72 in 10.0 mi SW 10.4 mph 16.1 mph N/A   Overcast
9:53 AM 48.0 °F - 44.1 °F 86% 29.73 in 10.0 mi SSW 6.9 mph - N/A   Overcast
10:53 AM 48.9 °F - 44.1 °F 83% 29.74 in 10.0 mi SW 6.9 mph - N/A   Overcast
11:53 AM 50.0 °F - 44.1 °F 80% 29.73 in 10.0 mi SW 4.6 mph - N/A   Overcast
12:53 PM 50.0 °F - 43.0 °F 77% 29.67 in 10.0 mi WSW 3.5 mph - N/A   Overcast
1:53 PM 50.0 °F - 44.1 °F 80% 29.65 in 10.0 mi South 6.9 mph - N/A   Overcast
2:53 PM 50.0 °F - 44.1 °F 80% 29.65 in 10.0 mi West 4.6 mph - N/A   Overcast
3:53 PM 50.0 °F - 43.0 °F 77% 29.66 in 10.0 mi NW 3.5 mph - N/A   Overcast
4:53 PM 50.0 °F - 44.1 °F 80% 29.67 in 10.0 mi Calm Calm - N/A   Overcast
5:53 PM 48.9 °F - 43.0 °F 80% 29.67 in 10.0 mi Calm Calm - N/A   Overcast
6:53 PM 48.9 °F - 43.0 °F 80% 29.68 in 10.0 mi Calm Calm - N/A   Overcast
7:53 PM 48.0 °F - 43.0 °F 83% 29.67 in 9.0 mi Calm Calm - N/A   Overcast
8:53 PM 48.0 °F - 43.0 °F 83% 29.67 in 8.0 mi Calm Calm - N/A   Overcast
9:53 PM 48.0 °F - 43.0 °F 83% 29.68 in 6.0 mi West 3.5 mph - 0.00 in   Light Drizzle
10:23 PM 46.4 °F - 44.6 °F 93% 29.66 in 2.5 mi Calm Calm - 0.00 in   Light Drizzle
10:39 PM 46.4 °F - 44.6 °F 93% 29.66 in 1.8 mi Calm Calm - 0.00 in   Light Drizzle
10:53 PM 46.0 °F - 44.1 °F 93% 29.66 in 1.5 mi Calm Calm - 0.00 in   Light Drizzle
11:15 PM 46.4 °F 45.2 °F 44.6 °F 93% 29.66 in 1.2 mi West 3.5 mph - 0.00 in   Light Drizzle
11:44 PM 44.6 °F 43.1 °F 44.6 °F 100% 29.66 in 1.8 mi WNW 3.5 mph - 0.01 in   Light Drizzle
11:53 PM 46.0 °F - 44.1 °F 93% 29.67 in 2.0 mi Calm Calm - 0.01 in   Light Drizzle
11:57 PM 46.4 °F 45.2 °F 44.6 °F 93% 29.66 in 2.0 mi West 3.5 mph - 0.00 in   Light Drizzle